H1 CPF 2 NER 2021 7 3 9 184 01 glonass122 H2 1004103 9122 37139 2021 7 3 0 0 0 2021 7 6 23 45 0 900 1 1 0 0 0 1 H9 10 0 59398 0.00000 0 -6971456.632 14701244.204 19672140.048 10 0 59398 900.00000 0 -8928391.039 15936835.832 17846023.636 10 0 59398 1800.00000 0 -10588467.262 17169856.320 15674487.328 10 0 59398 2700.00000 0 -11931036.814 18341644.369 13199842.975 10 0 59398 3600.00000 0 -12948040.483 19392586.697 10470158.711 10 0 59398 4500.00000 0 -13644061.980 20264658.498 7538325.758 10 0 59398 5400.00000 0 -14035863.943 20903910.377 4461040.938 10 0 59398 6300.00000 0 -14151428.520 21262799.631 1297723.826 10 0 59398 7200.00000 0 -14028544.745 21302270.528 -1890611.678 10 0 59398 8100.00000 0 -13713002.878 20993498.792 -5042511.245 10 0 59398 9000.00000 0 -13256471.365 20319229.179 -8097239.266 10 0 59398 9900.00000 0 -12714144.487 19274651.545 -10995922.981 10 0 59398 10800.00000 0 -12142257.732 17867779.262 -13682661.937 10 0 59398 11700.00000 0 -11595573.087 16119313.665 -16105583.641 10 0 59398 12600.00000 0 -11124937.627 14061998.740 -18217827.057 10 0 59398 13500.00000 0 -10775015.921 11739490.488 -19978436.789 10 0 59398 14400.00000 0 -10582290.109 9204784.798 -21353151.919 10 0 59398 15300.00000 0 -10573410.993 6518265.561 -22315074.908 10 0 59398 16200.00000 0 -10763969.833 3745450.200 -22845207.575 10 0 59398 17100.00000 0 -11157743.850 954522.433 -22932843.028 10 0 59398 18000.00000 0 -11746449.559 -1786248.464 -22575804.369 10 0 59398 18900.00000 0 -12510017.525 -4411097.253 -21780523.378 10 0 59398 19800.00000 0 -13417380.657 -6859255.174 -20561954.871 10 0 59398 20700.00000 0 -14427746.709 -9077241.876 -18943325.303 10 0 59398 21600.00000 0 -15492304.871 -11020860.868 -16955717.306 10 0 59398 22500.00000 0 -16556297.374 -12656813.729 -14637495.168 10 0 59398 23400.00000 0 -17561370.463 -13963863.426 -12033579.878 10 0 59398 24300.00000 0 -18448106.038 -14933495.657 -9194585.937 10 0 59398 25200.00000 0 -19158626.184 -15570048.138 -6175835.709 10 0 59398 26100.00000 0 -19639158.465 -15890300.630 -3036270.601 10 0 59398 27000.00000 0 -19842450.420 -15922542.001 162718.696 10 0 59398 27900.00000 0 -19729927.503 -15705153.822 3358518.159 10 0 59398 28800.00000 0 -19273499.296 -15284771.573 6488545.789 10 0 59398 29700.00000 0 -18456934.087 -14714103.539 9491508.725 10 0 59398 30600.00000 0 -17276740.789 -14049502.886 12308634.133 10 0 59398 31500.00000 0 -15742519.096 -13348399.316 14884846.497 10 0 59398 32400.00000 0 -13876762.355 -12666702.817 17169865.557 10 0 59398 33300.00000 0 -11714121.799 -12056292.749 19119201.345 10 0 59398 34200.00000 0 -9300164.517 -11562701.171 20695025.625 10 0 59398 35100.00000 0 -6689679.346 -11223089.971 21866902.478 10 0 59398 36000.00000 0 -3944604.054 -11064607.703 22612364.501 10 0 59398 36900.00000 0 -1131662.916 -11103194.762 22917324.847 10 0 59398 37800.00000 0 1680184.785 -11342885.455 22776319.329 10 0 59398 38700.00000 0 4422377.873 -11775633.792 22192576.513 10 0 59398 39600.00000 0 7029358.127 -12381667.191 21177917.315 10 0 59398 40500.00000 0 9441039.460 -13130350.025 19752488.931 10 0 59398 41400.00000 0 11605040.846 -13981517.679 17944340.911 10 0 59398 42300.00000 0 13478592.981 -14887222.599 15788853.890 10 0 59398 43200.00000 0 15030043.186 -15793817.298 13328033.818 10 0 59398 44100.00000 0 16239899.991 -16644286.029 10609686.504 10 0 59398 45000.00000 0 17101378.038 -17380727.365 7686489.057 10 0 59398 45900.00000 0 17620424.546 -17946884.433 4614976.103 10 0 59398 46800.00000 0 17815229.557 -18290618.273 1454459.687 10 0 59398 47700.00000 0 17715242.899 -18366222.598 -1734097.409 10 0 59398 48600.00000 0 17359740.543 -18136485.129 -4889234.804 10 0 59398 49500.00000 0 16796000.798 -17574411.068 -7950153.919 10 0 59398 50400.00000 0 16077166.214 -16664538.132 -10857863.363 10 0 59398 51300.00000 0 15259879.412 -15403788.888 -13556290.592 10 0 59398 52200.00000 0 14401789.968 -13801824.641 -15993340.705 10 0 59398 53100.00000 0 13559034.570 -11880885.006 -18121883.942 10 0 59398 54000.00000 0 12783793.839 -9675117.710 -19900654.678 10 0 59398 54900.00000 0 12122026.336 -7229423.480 -21295045.824 10 0 59398 55800.00000 0 11611473.496 -4597860.490 -22277783.944 10 0 59398 56700.00000 0 11280018.746 -1841670.561 -22829472.048 10 0 59398 57600.00000 0 11144470.196 972994.982 -22938988.827 10 0 59398 58500.00000 0 11209819.579 3777559.065 -22603735.060 10 0 59398 59400.00000 0 11469010.973 6503612.226 -21829720.266 10 0 59398 60300.00000 0 11903232.145 9085510.075 -20631485.173 10 0 59398 61200.00000 0 12482719.663 11462867.828 -19031858.423 10 0 59398 62100.00000 0 13168047.282 13582848.104 -17061549.049 10 0 59398 63000.00000 0 13911846.182 15402145.494 -14758579.544 10 0 59398 63900.00000 0 14660886.588 16888583.012 -12167567.990 10 0 59398 64800.00000 0 15358433.829 18022251.221 -9338871.281 10 0 59398 65700.00000 0 15946778.957 18796139.700 -6327605.026 10 0 59398 66600.00000 0 16369835.340 19216231.996 -3192559.287 10 0 59398 67500.00000 0 16575688.636 19301058.508 4967.761 10 0 59398 68400.00000 0 16518988.753 19080725.479 3202393.596 10 0 59398 69300.00000 0 16163078.592 18595461.573 6337105.866 10 0 59398 70200.00000 0 15481765.649 17893745.088 9347719.990 10 0 59398 71100.00000 0 14460658.075 17030093.597 12175311.931 10 0 59398 72000.00000 0 13098006.203 16062612.815 14764598.671 10 0 59398 72900.00000 0 11405012.461 15050412.026 17065040.561 10 0 59398 73800.00000 0 9405596.182 14050998.835 19031841.875 10 0 59398 74700.00000 0 7135623.979 13117766.379 20626828.715 10 0 59398 75600.00000 0 4641639.522 12297681.147 21819186.838 10 0 59398 76500.00000 0 1979148.062 11629269.952 22586045.684 10 0 59398 77400.00000 0 -789470.133 11140990.650 22912898.649 10 0 59398 78300.00000 0 -3597328.220 10850053.741 22793853.635 10 0 59398 79200.00000 0 -6375582.801 10761742.000 22231711.622 10 0 59398 80100.00000 0 -9056058.501 10869253.542 21237874.600 10 0 59398 81000.00000 0 -11573838.224 11154071.385 19832087.571 10 0 59398 81900.00000 0 -13869712.703 11586840.417 18042022.224 10 0 59398 82800.00000 0 -15892389.742 12128711.761 15902712.733 10 0 59398 83700.00000 0 -17600374.470 12733095.524 13455856.363 10 0 59398 84600.00000 0 -18963446.096 13347746.658 10748993.613 10 0 59398 85500.00000 0 -19963673.570 13917095.585 7834584.388 10 0 59399 0.00000 0 -20595931.799 14384725.967 4768998.097 10 0 59399 900.00000 0 -20867900.190 14695896.353 1611436.079 10 0 59399 1800.00000 0 -20799546.828 14800002.213 -1577192.851 10 0 59399 2700.00000 0 -20422120.921 14652875.681 -4735425.044 10 0 59399 3600.00000 0 -19776697.509 14218829.983 -7802401.575 10 0 59399 4500.00000 0 -18912334.479 13472363.527 -10719014.856 10 0 59399 5400.00000 0 -17883918.338 12399453.874 -13429022.474 10 0 59399 6300.00000 0 -16749787.006 10998387.562 -15880109.080 10 0 59399 7200.00000 0 -15569226.893 9280090.516 -18024877.853 10 0 59399 8100.00000 0 -14399946.612 7267943.494 -19821754.267 10 0 59399 9000.00000 0 -13295630.695 4997087.535 -21235786.027 10 0 59399 9900.00000 0 -12303673.938 2513244.908 -22239324.390 10 0 59399 10800.00000 0 -11463190.035 -128899.513 -22812573.767 10 0 59399 11700.00000 0 -10803377.665 -2867693.478 -22943998.270 10 0 59399 12600.00000 0 -10342313.207 -5636810.345 -22630575.814 10 0 59399 13500.00000 0 -10086222.363 -8367748.275 -21877892.755 10 0 59399 14400.00000 0 -10029263.659 -10992434.573 -20700074.475 10 0 59399 15300.00000 0 -10153835.864 -13445828.596 -19119550.220 10 0 59399 16200.00000 0 -10431399.497 -15668415.440 -17166653.538 10 0 59399 17100.00000 0 -10823780.649 -17608485.887 -14879063.007 10 0 59399 18000.00000 0 -11284904.477 -19224105.730 -12301091.507 10 0 59399 18900.00000 0 -11762886.439 -20484689.724 -9482835.921 10 0 59399 19800.00000 0 -12202393.121 -21372111.519 -6479202.650 10 0 59399 20700.00000 0 -12547171.656 -21881300.179 -3348827.963 10 0 59399 21600.00000 0 -12742638.460 -22020296.034 -152915.094 10 0 59399 22500.00000 0 -12738414.385 -21809762.089 3045987.334 10 0 59399 23400.00000 0 -12490695.125 -21281971.252 6185238.963 10 0 59399 24300.00000 0 -11964352.442 -20479312.994 9203365.828 10 0 59399 25200.00000 0 -11134673.472 -19452384.476 12041294.966 10 0 59399 26100.00000 0 -9988661.433 -18257749.636 14643538.051 10 0 59399 27000.00000 0 -8525840.558 -16955464.333 16959298.105 10 0 59399 27900.00000 0 -6758530.145 -15606475.569 18943475.515 10 0 59399 28800.00000 0 -4711576.252 -14270007.806 20557552.336 10 0 59399 29700.00000 0 -2421553.279 -13001049.085 21770337.316 10 0 59399 30600.00000 0 64529.358 -11848044.338 22558557.725 10 0 59399 31500.00000 0 2690959.082 -10850893.256 22907287.845 10 0 59399 32400.00000 0 5395415.998 -10039335.922 22810207.961 10 0 59399 33300.00000 0 8111343.438 -9431791.851 22269691.433 10 0 59399 34200.00000 0 10770493.095 -9034698.169 21296720.994 10 0 59399 35100.00000 0 13305538.476 -8842370.986 19910638.801 10 0 59399 36000.00000 0 15652648.581 -8837391.851 18138737.756 10 0 59399 36900.00000 0 17753916.306 -8991499.341 16015704.342 10 0 59399 37800.00000 0 19559543.095 -9266945.020 13582925.597 10 0 59399 38700.00000 0 21029692.152 -9618254.346 10887674.835 10 0 59399 39600.00000 0 22135936.602 -9994316.971 7982192.545 10 0 59399 40500.00000 0 22862246.001 -10340718.049 4922680.229 10 0 59399 41400.00000 0 23205473.568 -10602212.923 1768225.955 10 0 59399 42300.00000 0 23175326.725 -10725242.402 -1420318.629 10 0 59399 43200.00000 0 22793824.413 -10660384.606 -4581489.789 10 0 59399 44100.00000 0 22094265.100 -10364642.352 -7654371.464 10 0 59399 45000.00000 0 21119748.880 -9803471.939 -10579742.997 10 0 59399 45900.00000 0 19921314.743 -8952469.671 -13301195.067 10 0 59399 46800.00000 0 18555769.291 -7798646.164 -15766194.604 10 0 59399 47700.00000 0 17083295.490 -6341234.998 -17927080.180 10 0 59399 48600.00000 0 15564938.863 -4592000.677 -19741970.517 10 0 59399 49500.00000 0 14060073.525 -2575030.778 -21175569.929 10 0 59399 50400.00000 0 12623951.667 -326017.828 -22199855.825 10 0 59399 51300.00000 0 11305437.122 2108943.093 -22794635.093 10 0 59399 52200.00000 0 10145016.710 4674995.368 -22947957.927 10 0 59399 53100.00000 0 9173172.536 7310536.519 -22656379.612 10 0 59399 54000.00000 0 8409184.161 9949528.839 -21925063.127 10 0 59399 54900.00000 0 7860412.577 12524012.301 -20767717.859 10 0 59399 55800.00000 0 7522098.400 14966717.490 -19206372.567 10 0 59399 56700.00000 0 7377685.477 17213670.997 -17270983.801 10 0 59399 57600.00000 0 7399659.002 19206684.619 -14998884.292 10 0 59399 58500.00000 0 7550865.226 20895623.128 -12434079.397 10 0 59399 59400.00000 0 7786258.661 22240353.635 -9626403.296 10 0 59399 60300.00000 0 8055003.548 23212292.070 -6630550.169 10 0 59399 61200.00000 0 8302840.165 23795478.831 -3504999.209 10 0 59399 62100.00000 0 8474614.005 23987135.640 -310855.258 10 0 59399 63000.00000 0 8516857.850 23797678.042 2889370.481 10 0 59399 63900.00000 0 8380313.737 23250181.830 6033013.141 10 0 59399 64800.00000 0 8022283.941 22379325.932 9058512.698 10 0 59399 65700.00000 0 7408707.356 21229857.520 11906650.362 10 0 59399 66600.00000 0 6515869.861 19854646.386 14521735.292 10 0 59399 67500.00000 0 5331673.547 18312413.668 16852715.625 10 0 59399 68400.00000 0 3856409.426 16665234.132 18854189.927 10 0 59399 69300.00000 0 2103000.402 14975920.592 20487297.896 10 0 59399 70200.00000 0 96704.734 13305403.489 21720472.565 10 0 59399 71100.00000 0 -2125706.350 11710217.772 22530039.908 10 0 59399 72000.00000 0 -4517260.367 10240203.579 22900655.530 10 0 59399 72900.00000 0 -7022527.622 8936516.810 22825572.079 10 0 59399 73800.00000 0 -9579722.671 7830031.320 22306734.782 10 0 59399 74700.00000 0 -12123073.771 6940197.003 21354706.077 10 0 59399 75600.00000 0 -14585360.742 6274397.963 19988423.738 10 0 59399 76500.00000 0 -16900515.477 5827833.583 18234799.837 10 0 59399 77400.00000 0 -19006177.714 5583923.306 16128170.670 10 0 59399 78300.00000 0 -20846101.554 5515214.262 13709610.175 10 0 59399 79200.00000 0 -22372315.160 5584750.338 11026121.334 10 0 59399 80100.00000 0 -23546946.773 5747842.871 8129721.902 10 0 59399 81000.00000 0 -24343644.418 5954167.139 5076442.162 10 0 59399 81900.00000 0 -24748533.453 6150096.170 1925253.437 10 0 59399 82800.00000 0 -24760674.997 6281174.361 -1263052.956 10 0 59399 83700.00000 0 -24392008.494 6294628.170 -4427016.287 10 0 59399 84600.00000 0 -23666782.346 6141810.138 -7505666.252 10 0 59399 85500.00000 0 -22620496.980 5780475.439 -10439671.809 10 0 59400 0.00000 0 -21298404.122 5176797.159 -13172459.115 10 0 59400 900.00000 0 -19753623.472 4307036.453 -15651279.654 10 0 59400 1800.00000 0 -18044953.675 3158799.331 -17828209.163 10 0 59400 2700.00000 0 -16234466.066 1731824.692 -19661061.043 10 0 59400 3600.00000 0 -14384978.860 38271.231 -21114197.214 10 0 59400 4500.00000 0 -12557514.560 -1897512.877 -22159221.758 10 0 59400 5400.00000 0 -10808844.244 -4039730.842 -22775544.077 10 0 59400 6300.00000 0 -9189219.519 -6342362.169 -22950800.001 10 0 59400 7200.00000 0 -7740386.040 -8750824.969 -22681121.297 10 0 59400 8100.00000 0 -6493961.672 -11204010.820 -21971246.267 10 0 59400 9000.00000 0 -5470248.110 -13636611.334 -20834466.632 10 0 59400 9900.00000 0 -4677527.541 -15981642.421 -19292408.684 10 0 59400 10800.00000 0 -4111876.145 -18173062.963 -17374649.750 10 0 59400 11700.00000 0 -3757504.769 -20148379.199 -15118174.306 10 0 59400 12600.00000 0 -3587614.854 -21851125.273 -12566677.670 10 0 59400 13500.00000 0 -3565735.316 -23233114.355 -9769728.759 10 0 59400 14400.00000 0 -3647484.971 -24256363.289 -6781807.001 10 0 59400 15300.00000 0 -3782685.884 -24894606.810 -3661232.048 10 0 59400 16200.00000 0 -3917736.973 -25134334.491 -469007.987 10 0 59400 17100.00000 0 -3998144.909 -24975304.009 2732393.663 10 0 59400 18000.00000 0 -3971101.829 -24430507.127 5880285.679 10 0 59400 18900.00000 0 -3787996.672 -23525588.950 8913024.056 10 0 59400 19800.00000 0 -3406749.655 -22297745.243 11771246.159 10 0 59400 20700.00000 0 -2793867.191 -20794145.842 14399060.506 10 0 59400 21600.00000 0 -1926127.029 -19069953.042 16745162.094 10 0 59400 22500.00000 0 -791820.058 -17186021.520 18763849.240 10 0 59400 23400.00000 0 608504.841 -15206379.936 20415920.634 10 0 59400 24300.00000 0 2261824.453 -13195603.125 21669434.689 10 0 59400 25200.00000 0 4142961.635 -11216187.645 22500316.905 10 0 59400 26100.00000 0 6215427.369 -9326042.188 22892804.734 10 0 59400 27000.00000 0 8432747.055 -7576198.247 22839723.424 10 0 59400 27900.00000 0 10740213.419 -6008835.737 22342590.018 10 0 59400 28800.00000 0 13076990.702 -4655703.954 21411546.364 10 0 59400 29700.00000 0 15378480.951 -3537000.603 20065125.301 10 0 59400 30600.00000 0 17578853.054 -2660751.681 18329857.270 10 0 59400 31500.00000 0 19613629.268 -2022713.911 16239727.344 10 0 59400 32400.00000 0 21422222.653 -1606799.406 13835495.063 10 0 59400 33300.00000 0 22950321.616 -1386000.903 11163891.486 10 0 59400 34200.00000 0 24152024.792 -1323775.608 8276709.755 10 0 59400 35100.00000 0 24991640.256 -1375827.367 5229806.742 10 0 59400 36000.00000 0 25445077.208 -1492211.113 2082034.543 10 0 59400 36900.00000 0 25500774.951 -1619671.055 -1105878.590 10 0 59400 37800.00000 0 25160132.894 -1704115.082 -4272477.823 10 0 59400 38700.00000 0 24437425.370 -1693122.779 -7356741.587 10 0 59400 39600.00000 0 23359205.683 -1538383.490 -10299231.414 10 0 59400 40500.00000 0 21963224.142 -1197963.834 -13043211.899 10 0 59400 41400.00000 0 20296904.174 -638311.012 -15535721.528 10 0 59400 42300.00000 0 18415438.146 164091.162 -17728575.763 10 0 59400 43200.00000 0 16379579.760 1221482.880 -19579284.901 10 0 59400 44100.00000 0 14253222.018 2534058.419 -21051870.421 10 0 59400 45000.00000 0 12100858.700 4089699.909 -22117564.774 10 0 59400 45900.00000 0 9985032.283 5864228.906 -22755381.283 10 0 59400 46800.00000 0 7963872.319 7822169.097 -22952542.509 10 0 59400 47700.00000 0 6088825.390 9917992.590 -22704757.432 10 0 59400 48600.00000 0 4402670.672 12097802.238 -22016340.012 10 0 59400 49500.00000 0 2937904.232 14301384.042 -20900164.203 10 0 59400 50400.00000 0 1715560.842 16464547.424 -19377453.269 10 0 59400 51300.00000 0 744524.476 18521658.205 -17477404.269 10 0 59400 52200.00000 0 21358.643 20408259.747 -15236651.909 10 0 59400 53100.00000 0 -469333.922 22063672.460 -12698579.484 10 0 59400 54000.00000 0 -754035.398 23433461.521 -9912488.235 10 0 59400 54900.00000 0 -868956.449 24471666.882 -6932640.032 10 0 59400 55800.00000 0 -858256.071 25142698.739 -3817191.866 10 0 59400 56700.00000 0 -771913.784 25422815.337 -627043.690 10 0 59400 57600.00000 0 -663346.087 25301117.617 2575376.173 10 0 59400 58500.00000 0 -586871.034 24780016.099 5727361.706 10 0 59400 59400.00000 0 -595132.022 23875148.569 8767188.416 10 0 59400 60300.00000 0 -736594.016 22614751.479 11635353.158 10 0 59400 61200.00000 0 -1053222.261 21038512.165 14275766.923 10 0 59400 62100.00000 0 -1578445.336 19195951.997 16636874.389 10 0 59400 63000.00000 0 -2335491.532 17144411.089 18672676.129 10 0 59400 63900.00000 0 -3336170.537 14946722.400 20343631.976 10 0 59400 64800.00000 0 -4580152.550 12668675.985 21617427.496 10 0 59400 65700.00000 0 -6054774.719 10376382.425 22469589.073 10 0 59400 66600.00000 0 -7735381.712 8133647.830 22883936.937 10 0 59400 67500.00000 0 -9586184.125 5999471.039 22852869.373 10 0 59400 68400.00000 0 -11561596.510 4025767.173 22377475.178 10 0 59400 69300.00000 0 -13607996.671 2255411.006 21467474.978 10 0 59400 70200.00000 0 -15665830.825 720678.970 20140995.488 10 0 59400 71100.00000 0 -17671975.447 -557848.904 18424183.778 10 0 59400 72000.00000 0 -19562256.686 -1571885.509 16350671.421 10 0 59400 72900.00000 0 -21274022.690 -2325511.271 13960900.817 10 0 59400 73800.00000 0 -22748662.824 -2834728.047 11301327.992 10 0 59400 74700.00000 0 -23933970.657 -3126514.693 8423518.072 10 0 59400 75600.00000 0 -24786254.704 -3237426.883 5383150.970 10 0 59400 76500.00000 0 -25272111.672 -3211801.844 2238955.935 10 0 59400 77400.00000 0 -25369790.931 -3099644.202 -948405.424 10 0 59400 78300.00000 0 -25070095.781 -2954281.632 -4117487.649 10 0 59400 79200.00000 0 -24376785.708 -2829887.844 -7207221.231 10 0 59400 80100.00000 0 -23306463.976 -2778975.346 -10158063.395 10 0 59400 81000.00000 0 -21887955.378 -2849961.522 -12913119.999 10 0 59400 81900.00000 0 -20161199.265 -3084908.390 -15419219.233 10 0 59400 82800.00000 0 -18175702.322 -3517529.509 -17627918.452 10 0 59400 83700.00000 0 -15988613.037 -4171546.912 -19496426.649 10 0 59400 84600.00000 0 -13662495.014 -5059467.130 -20988426.159 10 0 59400 85500.00000 0 -11262888.572 -6181828.777 -22074778.542 10 0 59401 0.00000 0 -8855758.883 -7526955.431 -22734101.185 10 0 59401 900.00000 0 -6504933.951 -9071227.774 -22953202.962 10 0 59401 1800.00000 0 -4269636.803 -10779866.394 -22727369.089 10 0 59401 2700.00000 0 -2202213.863 -12608198.608 -22060487.695 10 0 59401 3600.00000 0 -346152.847 -14503358.993 -20965013.077 10 0 59401 4500.00000 0 1265525.577 -16406357.355 -19461763.227 10 0 59401 5400.00000 0 2611434.260 -18254430.316 -17579552.433 10 0 59401 6300.00000 0 3682493.217 -19983580.122 -15354662.930 10 0 59401 7200.00000 0 4482079.911 -21531194.849 -12830163.165 10 0 59401 8100.00000 0 5025647.745 -22838639.380 -10055083.827 10 0 59401 9000.00000 0 5339827.196 -23853706.409 -7083466.344 10 0 59401 9900.00000 0 5461046.564 -24532821.447 -3973302.221 10 0 59401 10800.00000 0 5433730.840 -24842905.572 -785384.557 10 0 59401 11700.00000 0 5308156.152 -24762813.820 2417904.112 10 0 59401 12600.00000 0 5138053.023 -24284285.301 5573841.400 10 0 59401 13500.00000 0 4978063.246 -23412362.464 8620624.570 10 0 59401 14400.00000 0 4881162.003 -22165260.363 11498612.015 10 0 59401 15300.00000 0 4896158.455 -20573691.138 14151519.019 10 0 59401 16200.00000 0 5065384.452 -18679673.151 16527541.520 10 0 59401 17100.00000 0 5422672.330 -16534876.733 18580383.648 10 0 59401 18000.00000 0 5991709.485 -14198578.805 20270167.391 10 0 59401 18900.00000 0 6784840.354 -11735315.111 21564206.163 10 0 59401 19800.00000 0 7802366.310 -9212331.236 22437627.624 10 0 59401 20700.00000 0 9032371.892 -6696941.423 22873834.856 10 0 59401 21600.00000 0 10451082.847 -4253906.857 22864798.983 10 0 59401 22500.00000 0 12023738.606 -1942943.079 22411180.093 10 0 59401 23400.00000 0 13705940.092 183540.446 21522276.918 10 0 59401 24300.00000 0 15445414.077 2082376.647 20215809.186 10 0 59401 25200.00000 0 17184118.462 3721175.611 18517539.554 10 0 59401 26100.00000 0 18860599.249 5079397.779 16460744.906 10 0 59401 27000.00000 0 20412500.462 6148925.266 14085549.144 10 0 59401 27900.00000 0 21779122.724 6934112.023 11438131.723 10 0 59401 28800.00000 0 22903924.980 7451314.786 8569828.030 10 0 59401 29700.00000 0 23736866.901 7727928.043 5536139.078 10 0 59401 30600.00000 0 24236496.575 7800966.037 2395669.132 10 0 59401 31500.00000 0 24371698.829 7715252.792 -790989.155 10 0 59401 32400.00000 0 24123033.588 7521296.650 -3962402.147 10 0 59401 33300.00000 0 23483610.332 7272938.093 -7057454.909 10 0 59401 34200.00000 0 22459463.430 7024868.343 -10016502.865 10 0 59401 35100.00000 0 21069413.090 6830121.222 -12782495.575 10 0 59401 36000.00000 0 19344417.173 6737641.647 -15302053.237 10 0 59401 36900.00000 0 17326439.382 6790031.016 -17526477.264 10 0 59401 37800.00000 0 15066878.624 7021562.790 -19412677.333 10 0 59401 38700.00000 0 12624621.810 7456550.950 -20923998.474 10 0 59401 39600.00000 0 10063797.743 8108140.103 -22030933.030 10 0 59401 40500.00000 0 7451321.909 8977569.373 -22711703.982 10 0 59401 41400.00000 0 4854330.887 10053943.400 -22952707.810 10 0 59401 42300.00000 0 2337610.367 11314523.317 -22748807.011 10 0 59401 43200.00000 0 -38878.294 12725529.465 -22103464.644 10 0 59401 44100.00000 0 -2222271.087 14243426.420 -21028715.682 10 0 59401 45000.00000 0 -4168779.160 15816640.457 -19544972.742 10 0 59401 45900.00000 0 -5845288.051 17387640.926 -17680666.752 10 0 59401 46800.00000 0 -7230509.820 18895300.738 -15471726.396 10 0 59401 47700.00000 0 -8315637.671 20277438.119 -12960903.720 10 0 59401 48600.00000 0 -9104473.357 21473432.776 -10196956.852 10 0 59401 49500.00000 0 -9613020.071 22426805.057 -7233704.399 10 0 59401 50400.00000 0 -9868556.579 23087646.949 -4128969.646 10 0 59401 51300.00000 0 -9908231.258 23414799.138 -943435.856 10 0 59401 52200.00000 0 -9777236.161 23377678.590 2260563.406 10 0 59401 53100.00000 0 -9526640.088 22957675.812 5420292.678 10 0 59401 54000.00000 0 -9210975.272 22149059.729 8473874.325 10 0 59401 54900.00000 0 -8885683.417 20959349.658 11361531.587 10 0 59401 55800.00000 0 -8604533.188 19409137.591 14026787.255 10 0 59401 56700.00000 0 -8417122.433 17531368.280 16417591.592 10 0 59401 57600.00000 0 -8366574.242 15370108.615 18487355.131 10 0 59401 58500.00000 0 -8487526.927 12978860.086 20195864.602 10 0 59401 59400.00000 0 -8804504.384 10418487.778 21510063.543 10 0 59401 60300.00000 0 -9330736.029 7754855.346 22404682.798 10 0 59401 61200.00000 0 -10067475.313 5056267.431 22862709.793 10 0 59401 62100.00000 0 -11003843.813 2390828.109 22875689.519 10 0 59401 63000.00000 0 -12117205.114 -176173.709 22443853.866 10 0 59401 63900.00000 0 -13374050.028 -2584743.171 21576079.627 10 0 59401 64800.00000 0 -14731353.291 -4782421.083 20289678.912 10 0 59401 65700.00000 0 -16138342.507 -6726197.520 18610028.763 10 0 59401 66600.00000 0 -17538603.404 -8384021.305 16570049.598 10 0 59401 67500.00000 0 -18872432.285 -9735846.682 14209544.529 10 0 59401 68400.00000 0 -20079337.096 -10774178.042 11574413.709 10 0 59401 69300.00000 0 -21100583.178 -11504094.228 8715759.684 10 0 59401 70200.00000 0 -21881678.674 -11942755.372 5688901.210 10 0 59401 71100.00000 0 -22374697.682 -12118415.992 2552314.047 10 0 59401 72000.00000 0 -22540346.269 -12068987.849 -633481.721 10 0 59401 72900.00000 0 -22349687.292 -11840213.931 -3807067.897 10 0 59401 73800.00000 0 -21785453.922 -11483530.219 -6907287.683 10 0 59401 74700.00000 0 -20842898.477 -11053704.104 -9874398.164 10 0 59401 75600.00000 0 -19530141.751 -10606347.037 -12651195.892 10 0 59401 76500.00000 0 -17868008.005 -10195403.846 -15184096.143 10 0 59401 77400.00000 0 -15889351.281 -9870722.037 -17424147.142 10 0 59401 78300.00000 0 -13637898.928 -9675801.242 -19327961.619 10 0 59401 79200.00000 0 -11166657.476 -9645816.022 -20858549.175 10 0 59401 80100.00000 0 -8535943.702 -9805994.444 -21986034.260 10 0 59401 81000.00000 0 -5811118.927 -10170421.008 -22688246.143 10 0 59401 81900.00000 0 -3060116.919 -10741315.662 -22951168.998 10 0 59401 82800.00000 0 -350864.894 -11508821.665 -22769242.080 10 0 59401 83700.00000 0 2251297.883 -12451314.529 -22145502.283 10 0 59401 84600.00000 0 4686098.282 -13536222.883 -21091563.698 10 0 59401 85500.00000 0 6900601.678 -14721330.708 -19627431.588 99